Location: Bandys
(35.4750°N, 81.0830°W)
Time: 13:19:19
(UTC-04:00)

Daily predictions for brighter satellites

Satellite Brightness Start Highest point End
(mag) Time Altitude Azimuth Time Altitude Azimuth Time Altitude Azimuth
ATLAS CENTAUR R/B 3.2 19:26:19 10° SSW 19:30:14 55° ESE 19:41:22 10° NE
CZ-4C R/B 3.1 19:27:54 10° SW 19:32:59 50° NW 19:38:41 10° NNE
Meteor 2-5 Rocket 3.7 19:32:02 10° N 19:37:41 86° E 19:43:13 10° S
Meteor 1-24 Rocket 3.9 19:32:45 10° N 19:38:10 47° ENE 19:43:22 10° SSE
Cosmos 1707 2.6 19:36:37 10° N 19:40:28 77° E 19:44:19 10° S
Cosmos 1812 Rocket 4.3 19:36:17 10° SSW 19:40:32 57° W 19:44:49 10° N
Abrixas rocket 4.4 19:38:11 10° WNW 19:41:02 26° SW 19:43:52 10° SSE
SAR-Lupe-4 3.7 19:40:49 10° SSE 19:44:17 53° ENE 19:47:47 10° N
Cosmos 1464 Rocket 4.3 19:39:19 10° SSE 19:45:14 45° E 19:51:06 10° NNE
SJ-6B 3.1 19:41:53 10° SSE 19:45:38 46° ENE 19:49:31 10° N
FREGAT/IRIS 3.4 19:44:49 10° SE 19:47:36 31° ENE 19:50:24 10° N
Milstar 3 4.4 19:40:11 10° WSW 19:49:30 63° S 20:06:29 12° E
Cosmos 921 Rocket 4.2 19:45:51 10° NNW 19:49:51 45° W 19:53:50 10° S
Cosmos 1437 2.7 19:48:53 10° N 19:52:09 72° E 19:55:23 10° SSE
Cosmos 1758 4.3 19:51:17 10° SSE 19:54:43 27° E 19:58:11 10° NNE
Cosmos 2333 Rocket 4.2 19:53:03 10° WSW 19:58:09 32° WNW 20:03:15 10° N
TIMED 4.5 19:53:50 10° NNW 19:58:12 69° ENE 20:02:32 10° SSE
Spot 2 Rocket 3.8 19:56:01 10° SE 20:00:44 43° ENE 20:05:29 10° N
NOSS 3-2 (C) 3.4 19:55:54 10° SSW 20:01:52 76° ESE 20:08:20 10° NE
CENTAUR R/B 3.7 19:58:37 10° SE 20:02:14 17° ESE 20:05:41 11° ENE
GPS 2-04 Rocket1 3.8 20:01:54 10° SSW 20:04:44 23° SSE 20:06:26 16° ESE
Cosmos 1076 Rocket 3.8 20:01:02 10° N 20:05:11 44° E 20:09:20 10° SSE
Cosmos-2242 3.6 20:03:04 10° SSE 20:07:00 35° E 20:10:59 10° NNE
ASTEX 1 4.4 20:03:14 10° NE 20:07:05 23° E 20:10:53 10° SE
Cosmos 2056 Rocket 3.6 20:02:06 10° NNW 20:07:34 86° ENE 20:12:59 10° SSE
Helios 1B rocket 2.5 20:03:43 10° NNE 20:07:45 53° E 20:11:46 10° S
Cosmos 1484 Rocket 4.2 20:04:45 10° S 20:08:20 40° W 20:11:59 10° NNW
SL-8 R/B 4.3 20:04:00 10° SSW 20:08:23 37° SE 20:11:40 16° ENE
NOAA 12 4.1 20:09:48 10° SSE 20:15:02 87° WSW 20:20:21 10° NNW
In-Cosmos 22 4.4 20:10:20 10° N 20:15:58 52° ENE 20:21:33 10° SSE
Atlas Centaur 2 3.6 20:11:50 10° W 20:20:01 50° SSW 20:26:10 16° SE
ASTRO E2 3.2 20:17:43 10° WSW 20:21:36 47° S 20:23:32 25° ESE
Cosmos 1408 Rocket 3.4 20:18:43 10° N 20:23:02 64° E 20:27:18 10° SSE
ATLAS CENTAUR R/B 2.6 20:26:18 10° NW 20:30:08 39° WSW 20:33:41 10° S
Abrixas 2.7 20:27:18 10° SSW 20:30:10 45° SE 20:30:14 45° SE
Resurs 01 Rocket 1.6 20:26:30 10° SSE 20:30:56 88° E 20:35:24 10° NNW
HJ-1C 3.4 20:28:21 10° S 20:31:42 79° WSW 20:35:04 10° NNW
ATLAS 5 CENTAUR R/B 2.0 20:27:11 10° SW 20:31:53 72° WNW 20:36:57 10° NNE
Resurs 1-3 3.5 20:28:11 10° SSE 20:32:32 69° ENE 20:36:55 10° N
USA 215 3.8 20:34:19 10° NE 20:40:41 57° NW 20:47:03 10° WSW
CZ-2D R/B 3.5 20:43:00 46° E 20:43:08 46° ENE 20:46:53 10° N
BREEZE-M DEB (TANK) 4.4 20:21:15 10° NW 20:43:09 83° SW 20:46:39 26° SE
SL-16 R/B 3.8 20:38:03 10° SW 20:43:15 36° WNW 20:48:30 10° N
Meteor 1-29 3.8 20:42:39 10° N 20:46:05 52° WNW 20:49:29 10° SSW
Gbstr 26 Del rocket 3.7 20:44:54 10° SSW 20:48:32 37° SE 20:48:32 37° SE
Cosmos 1953 2.9 20:45:30 10° SSW 20:49:25 56° W 20:53:21 10° N
Cosmos 1743 Rocket 3.5 20:46:14 10° N 20:50:38 60° E 20:51:27 50° SE
ISS -1.6 20:47:59 10° SSW 20:49:30 24° SSW 20:49:30 24° SSW
Helios 1A 3.8 20:51:16 10° S 20:55:20 51° W 20:59:26 10° NNW
Nadezhda 4 Rocket 3.9 20:52:22 10° N 20:58:41 78° E 21:04:03 14° S
OAO 1 Rocket 4.3 20:53:26 10° W 20:58:48 84° S 21:00:06 53° E
SeaSat 1 2.3 20:56:02 10° NNE 21:00:58 72° ESE 21:05:52 10° SSW
H-2A R/B 2.7 21:01:10 76° NE 21:01:10 76° NE 21:04:53 10° N
Cosmos 1544 3.8 20:59:34 10° SSW 21:03:12 55° W 21:06:54 10° N
GP-B 4.5 20:59:15 10° NNE 21:01:21 26° NNE 21:01:21 26° NNE
Cosmos 1452 Rocket 3.7 20:59:00 10° NNW 21:04:13 68° WSW 21:07:30 23° S
Cosmos 1092 Rocket 3.9 20:58:30 10° N 21:04:40 62° E 21:06:37 42° SE
CZ-4B DEB 3.7 21:06:22 48° NW 21:06:22 48° NW 21:09:01 10° NNW
ALOS 2.4 21:04:18 25° S 21:06:59 71° WSW 21:11:39 10° NNW
FENGYUN 3A 3.8 21:06:43 19° S 21:10:35 73° WSW 21:15:59 10° NNW
SEDSat Delta rocket 4.1 21:04:02 10° W 21:10:43 63° S 21:12:12 50° SE
OAO 3 Rocket 3.0 21:08:32 10° W 21:13:20 86° S 21:13:21 86° S
Cosmos 1634 Rocket 3.8 21:09:29 10° S 21:15:41 69° E 21:21:52 10° NNE
Cosmos 1943 3.8 21:21:34 10° SSW 21:33:10 - NNE 21:25:09 41° S
Cosmos 1420 Rocket 4.0 21:22:01 10° NNW 21:27:20 78° WSW 21:27:35 76° SW
Cosmos 2369 Rocket 3.0 21:24:57 10° N 21:28:54 39° NNE 21:28:54 39° NNE
Cosmos 1943 Rocket 4.1 21:33:30 10° N 21:35:15 17° NNE 21:35:15 17° NNE
BREEZE-M DEB (TANK) 4.4 21:20:17 10° NW 21:45:00 63° SW 21:46:50 49° S
CENTAUR R/B 2.7 21:46:01 10° SW 21:51:57 67° NW 21:53:12 54° N
Atlas Centaur 2 4.3 22:02:41 10° W 22:08:50 24° SSW 22:08:50 24° SSW
